Lid_Strength_Index
9 10 12 9 10 9 9 10 10 8 7 8 9 9 8 7 6 7 6 6 6 5 4 3 3 2 2 2 2 4 2 2 1 1 2 2 2 1 1 1 1 1 -0 0
10 12 8 7 8 9 9 10 11 8 7 8 9 9 7 7 7 7 7 6 6 5 5 4 3 2 2 2 2 2 2 2 1 1 2 2 2 1 2 2 2 -0 0 0
11 9 7 8 8 10 10 12 10 10 8 8 9 10 10 8 7 6 6 5 5 5 5 4 3 3 2 2 2 2 1 1 1 1 1 1 1 1 2 2 1 1 0 0
10 8 8 9 9 9 13 9 9 8 10 14 9 15 12 10 9 8 7 6 5 5 4 4 4 3 3 2 2 2 1 1 1 1 1 2 2 3 2 1 1 1 1 0
10 10 10 10 9 8 9 9 11 10 11 13 12 13 13 9 11 9 7 6 6 5 4 4 4 3 2 2 2 2 1 1 1 1 1 2 3 2 1 2 1 1 1 1
9 9 9 10 9 9 9 10 12 13 14 16 14 13 13 12 10 9 7 6 6 5 4 4 3 3 3 2 2 2 2 2 1 1 1 1 2 2 2 2 2 2 2 3
11 10 10 9 12 10 12 14 16 16 16 16 14 12 11 9 8 7 7 6 6 5 5 4 4 3 3 3 2 2 2 2 1 1 1 1 2 2 2 2 2 2 2 3
14 14 11 9 10 12 12 14 16 18 17 16 14 15 12 8 7 6 6 6 5 5 5 5 4 3 3 3 2 2 2 2 2 1 2 1 2 2 2 2 2 2 2 2
15 13 9 9 9 10 13 14 12 15 15 17 15 12 9 8 8 7 7 6 6 6 4 5 4 3 3 3 2 2 2 2 2 2 1 1 1 2 2 2 3 1 2 1
12 14 12 10 10 10 11 11 14 16 17 18 15 15 13 10 9 8 7 7 6 5 4 4 5 3 3 2 2 2 2 2 2 1 1 1 1 1 1 3 5 2 2 1
11 13 12 11 13 12 12 13 14 15 15 17 17 14 10 9 8 8 7 6 5 5 5 4 5 3 3 2 2 2 2 2 2 2 1 1 1 2 1 4 4 1 2 1
9 14 15 12 10 10 11 13 15 15 16 17 16 14 8 8 7 7 7 6 5 5 5 4 4 4 3 3 3 3 2 2 2 2 1 1 1 2 2 3 1 1 1 1
9 13 16 13 10 11 12 12 14 14 15 16 16 13 8 7 8 7 7 6 6 4 5 6 6 4 3 3 3 3 2 2 2 2 2 2 2 2 2 1 1 0 1 1
8 14 14 14 13 11 12 11 11 14 15 16 15 12 10 9 8 7 7 6 5 5 5 5 6 5 3 3 3 3 3 2 2 2 2 2 2 2 1 1 1 1 1 1
10 14 12 11 11 10 10 10 10 11 13 15 12 12 11 9 9 7 6 6 6 6 5 5 5 4 4 4 3 3 3 2 2 2 2 2 2 1 1 1 1 1 2 1
11 12 10 12 9 9 10 9 9 10 10 11 11 12 8 7 7 7 7 6 6 6 5 5 5 4 4 4 3 3 3 2 2 2 2 3 3 2 1 2 3 2 1 1
10 12 13 14 11 11 12 10 10 11 10 11 14 11 8 8 8 7 7 6 6 6 6 5 5 4 4 3 3 3 3 2 2 2 2 3 3 3 3 4 3 2 2 3
12 12 13 14 13 16 12 8 8 11 10 9 9 9 8 8 8 6 6 6 6 6 5 5 4 4 3 3 3 2 2 2 2 2 3 3 4 4 5 5 4 3 4 5
11 12 13 14 14 12 11 10 10 11 12 9 9 9 8 7 6 6 5 5 5 5 5 4 4 3 3 3 3 3 3 3 2 3 3 4 4 4 4 4 4 5 5 5
11 11 12 13 15 16 11 8 7 8 14 8 8 8 7 7 11 9 5 6 4 4 4 4 3 3 3 3 2 3 3 3 3 3 3 4 4 4 4 3 5 4 4 5
13 12 13 14 15 13 9 7 6 13 12 8 7 7 7 8 7 5 5 5 4 4 4 4 3 4 3 2 2 3 3 3 2 3 3 3 4 4 3 4 4 4 5 6
12 13 14 13 15 17 7 8 10 9 8 7 6 6 6 6 5 5 5 5 5 4 4 4 4 4 3 3 3 4 4 3 3 3 3 4 3 3 3 3 4 4 5 6
13 11 12 11 12 8 8 7 7 6 7 7 6 6 6 7 5 5 5 5 4 4 4 3 4 4 4 4 4 4 4 3 3 3 3 3 3 3 2 3 4 4 5 6
9 8 10 10 9 9 7 6 6 5 6 5 5 5 5 6 5 5 5 5 5 4 4 4 4 4 4 4 4 4 3 2 3 3 2 3 3 2 2 2 4 5 5 6
9 9 10 11 9 8 7 6 5 5 5 5 4 4 6 5 5 5 5 5 5 4 4 3 4 4 4 3 4 3 2 2 2 2 2 2 2 2 3 3 4 4 5 5
9 9 10 11 8 8 8 6 5 5 5 4 5 5 4 4 5 5 5 5 6 6 4 4 4 3 3 3 2 2 2 2 2 3 2 3 3 4 5 6 7 10 9 9